�������l�o���
Date,Time,MP-1(��Sv/h),MP-2(��Sv/h),MP-3(��Sv/h),MP-4(��Sv/h),MP-5(��Sv/h),MP-6(��Sv/h),MP-7(��Sv/h),MP-8(��Sv/h),����,����(m/s),���J
2015/02/19,00:00,1.843,3.282,3.497,3.220,3.142,1.048,1.762,2.040,�k�k��,7.9,�L
2015/02/19,00:10,1.840,3.282,3.497,3.215,3.140,1.050,1.758,2.040,�k�k��,9.1,�L
2015/02/19,00:20,1.840,3.280,3.497,3.215,3.143,1.052,1.758,2.040,�k�k��,8.2,�L
2015/02/19,00:30,1.835,3.280,3.497,3.212,3.143,1.048,1.760,2.043,�k�k��,8.3,�L
2015/02/19,00:40,1.837,3.280,3.493,3.213,3.143,1.050,1.762,2.043,�k�k��,8.8,�L
2015/02/19,00:50,1.837,3.282,3.498,3.217,3.148,1.052,1.763,2.043,�k�k��,8.8,�L
2015/02/19,01:00,1.840,3.283,3.503,3.220,3.150,1.050,1.762,2.043,�k�k��,9.1,�L
2015/02/19,01:10,1.842,3.287,3.505,3.222,3.150,1.052,1.763,2.043,�k�k��,8.5,�L
2015/02/19,01:20,1.842,3.282,3.508,3.220,3.152,1.055,1.763,2.047,�k�k��,8.9,�L
2015/02/19,01:30,1.845,3.287,3.513,3.223,3.157,1.052,1.767,2.047,�k�k��,9.3,�L
2015/02/19,01:40,1.843,3.288,3.518,3.223,3.157,1.053,1.765,2.047,�k�k��,7.5,�L
2015/02/19,01:50,1.847,3.290,3.518,3.227,3.163,1.055,1.767,2.045,�k�k��,9.3,�L
2015/02/19,02:00,1.845,3.292,3.515,3.228,3.168,1.055,1.768,2.045,�k�k��,8.2,�L
2015/02/19,02:10,1.845,3.295,3.520,3.230,3.170,1.053,1.768,2.045,�k��,9.3,�L
2015/02/19,02:20,1.843,3.295,3.522,3.232,3.168,1.057,1.767,2.048,�k�k��,8.9,�L
2015/02/19,02:30,1.847,3.293,3.523,3.235,3.172,1.055,1.770,2.047,�k�k��,8.2,�L
2015/02/19,02:40,1.848,3.298,3.525,3.237,3.175,1.055,1.768,2.050,�k�k��,8.8,�L
2015/02/19,02:50,1.848,3.298,3.530,3.235,3.177,1.053,1.768,2.050,�k�k��,9.1,�L
2015/02/19,03:00,1.850,3.302,3.530,3.237,3.180,1.055,1.770,2.050,�k�k��,9.3,�L
2015/02/19,03:10,1.850,3.305,3.530,3.240,3.178,1.057,1.768,2.050,�k�k��,9.1,�L
2015/02/19,03:20,1.848,3.302,3.530,3.240,3.185,1.057,1.767,2.047,�k�k��,10.2,�L
2015/02/19,03:30,1.850,3.300,3.527,3.243,3.180,1.057,1.768,2.047,�k�k��,9.9,�L
2015/02/19,03:40,1.850,3.300,3.527,3.243,3.182,1.057,1.768,2.048,�k�k��,10.1,�L
2015/02/19,03:50,1.848,3.303,3.527,3.243,3.188,1.055,1.768,2.047,�k�k��,8.9,�L
2015/02/19,04:00,1.848,3.302,3.533,3.242,3.192,1.058,1.768,2.047,�k�k��,9.6,�L
2015/02/19,04:10,1.850,3.305,3.535,3.245,3.188,1.057,1.770,2.052,�k��,9.7,�L
2015/02/19,04:20,1.853,3.307,3.535,3.242,3.193,1.055,1.772,2.048,�k�k��,7.8,�L
2015/02/19,04:30,1.850,3.308,3.532,3.245,3.188,1.058,1.770,2.047,�k��,8.8,�L
2015/02/19,04:40,1.852,3.307,3.537,3.243,3.193,1.058,1.770,2.048,�k�k��,9.1,�L
2015/02/19,04:50,1.847,3.303,3.535,3.245,3.195,1.058,1.773,2.050,�k��,9.1,��
2015/02/19,05:00,1.852,3.302,3.537,3.245,3.197,1.058,1.773,2.050,�k�k��,8.8,�L
2015/02/19,05:10,1.850,3.305,3.540,3.248,3.198,1.058,1.773,2.050,�k��,10.4,�L
2015/02/19,05:20,1.848,3.310,3.542,3.250,3.203,1.058,1.772,2.050,�k�k��,10.5,�L
2015/02/19,05:30,1.852,3.312,3.542,3.250,3.207,1.060,1.775,2.052,�k�k��,7.7,�L
2015/02/19,05:40,1.848,3.310,3.543,3.250,3.213,1.060,1.773,2.052,�k�k��,9.1,��
2015/02/19,05:50,1.853,3.312,3.543,3.253,3.215,1.060,1.772,2.052,�k�k��,8.8,��
2015/02/19,06:00,1.852,3.308,3.545,3.253,3.213,1.055,1.773,2.048,�k�k��,9.1,��
2015/02/19,06:10,1.855,3.317,3.550,3.252,3.217,1.058,1.777,2.055,�k�k��,8.8,��
2015/02/19,06:20,1.853,3.315,3.553,3.252,3.215,1.058,1.777,2.052,�k�k��,9.3,��
2015/02/19,06:30,1.855,3.320,3.555,3.255,3.218,1.058,1.777,2.052,�k�k��,8.6,��
2015/02/19,06:40,1.855,3.317,3.553,3.258,3.215,1.057,1.777,2.053,�k�k��,9.1,��
2015/02/19,06:50,1.855,3.322,3.557,3.258,3.220,1.050,1.777,2.053,�k�k��,8.8,��
2015/02/19,07:00,1.857,3.322,3.558,3.260,3.223,1.052,1.778,2.055,�k�k��,8.9,��
2015/02/19,07:10,1.860,3.325,3.563,3.263,3.220,1.050,1.780,2.053,�k�k��,9.1,��
2015/02/19,07:20,1.857,3.327,3.563,3.260,3.227,1.048,1.778,2.055,�k�k��,8.2,��
2015/02/19,07:30,1.855,3.328,3.565,3.265,3.228,1.043,1.778,2.057,�k�k��,8.6,�L
2015/02/19,07:40,1.860,3.332,3.565,3.270,3.232,1.043,1.780,2.052,�k�k��,8.9,��
2015/02/19,07:50,1.860,3.332,3.573,3.268,3.238,1.047,1.780,2.055,�k�k��,8.5,��
2015/02/19,08:00,1.860,3.335,3.570,3.270,3.240,1.045,1.778,2.055,�k�k��,10.5,��
2015/02/19,08:10,1.857,3.337,3.572,3.270,3.240,1.045,1.777,2.055,�k�k��,8.9,��
2015/02/19,08:20,1.860,3.337,3.578,3.273,3.245,1.047,1.780,2.055,�k�k��,10.5,��
2015/02/19,08:30,1.860,3.343,3.575,3.273,3.247,1.047,1.782,2.055,�k�k��,9.1,��
2015/02/19,08:40,1.863,3.345,3.587,3.275,3.252,1.045,1.783,2.057,�k�k��,8.5,��
2015/02/19,08:50,1.865,3.343,3.588,3.280,3.252,1.045,1.782,2.052,�k�k��,8.5,�L
2015/02/19,09:00,1.863,3.342,3.588,3.280,3.257,1.045,1.782,2.053,�k�k��,9.3,�L
2015/02/19,09:10,1.862,3.343,3.597,3.275,3.258,1.047,1.783,2.055,�k�k��,7.9,�L
2015/02/19,09:20,1.860,3.345,3.592,3.283,3.260,1.047,1.785,2.055,�k�k��,8.2,��
2015/02/19,09:30,1.863,3.347,3.595,3.282,3.263,1.048,1.782,2.057,�k�k��,7.4,�L
2015/02/19,09:40,1.865,3.343,3.595,3.282,3.265,1.050,1.783,2.058,�k�k��,8.3,�L
2015/02/19,09:50,1.865,3.330,3.602,3.282,3.270,1.052,1.783,2.055,�k�k��,7.1,�L
2015/02/19,10:00,1.867,3.330,3.607,3.285,3.273,1.047,1.782,2.055,�k�k��,7.4,�L
2015/02/19,10:10,1.865,3.342,3.613,3.285,3.277,1.050,1.782,2.055,�k�k��,7.7,�L
2015/02/19,10:20,1.867,3.338,3.610,3.283,3.285,1.052,1.783,2.057,�k�k��,8.5,�L
2015/02/19,10:30,1.865,3.333,3.608,3.287,3.293,1.052,1.783,2.057,�k�k��,8.0,�L
2015/02/19,10:40,1.868,3.340,3.610,3.288,3.297,1.052,1.783,2.057,�k�k��,8.6,�L
2015/02/19,10:50,1.865,3.342,3.608,3.290,3.307,1.053,1.782,2.057,�k�k��,7.1,�L
2015/02/19,11:00,1.870,3.343,3.615,3.290,3.312,1.058,1.783,2.055,�k�k��,7.8,�L
2015/02/19,11:10,1.868,3.343,3.620,3.292,3.322,1.055,1.782,2.053,�k,5.6,�L
2015/02/19,11:20,1.860,3.347,3.625,3.292,3.328,1.057,1.785,2.052,�k�k��,7.2,�L
2015/02/19,11:30,1.862,3.348,3.627,3.295,3.328,1.057,1.788,2.053,�k,6.3,�L
2015/02/19,11:40,1.858,3.357,3.625,3.293,3.337,1.058,1.785,2.055,�k�k��,6.9,�L
2015/02/19,11:50,1.862,3.360,3.630,3.297,3.338,1.058,1.785,2.053,�k�k��,7.7,�L
2015/02/19,12:00,1.860,3.363,3.633,3.297,3.348,1.060,1.792,2.053,�k�k��,8.5,�L
2015/02/19,12:10,1.862,3.365,3.640,3.300,3.355,1.060,1.788,2.053,�k�k��,7.9,��
2015/02/19,12:20,1.868,3.365,3.642,3.298,3.360,1.058,1.792,2.057,�k�k��,9.1,�L
2015/02/19,12:30,1.868,3.365,3.642,3.302,3.367,1.058,1.790,2.057,�k,7.4,��
2015/02/19,12:40,1.868,3.370,3.645,3.305,-,1.060,1.788,2.057,�k�k��,7.7,�L
2015/02/19,12:50,1.868,3.368,3.648,3.305,-,1.058,1.788,2.055,�k�k��,8.2,��
2015/02/19,13:00,1.870,3.373,3.652,3.300,-,1.060,1.788,2.055,�k,7.2,�L
2015/02/19,13:10,1.873,3.370,3.652,3.302,-,1.060,1.787,2.055,�k,7.2,��
2015/02/19,13:20,1.872,3.370,3.650,3.302,-,1.060,1.787,2.055,�k,8.5,��
2015/02/19,13:30,1.872,3.372,3.655,3.307,-,1.060,1.785,2.057,�k,6.9,��
2015/02/19,13:40,1.872,3.372,3.655,3.305,-,1.065,1.785,2.055,�k,7.7,��
2015/02/19,13:50,1.870,3.368,3.652,3.305,-,1.062,1.785,2.055,�k,6.5,��
2015/02/19,14:00,1.873,3.338,3.657,3.308,-,1.062,1.785,2.055,�k,7.5,��
2015/02/19,14:10,1.872,3.328,3.662,3.310,-,1.063,1.785,2.060,�k,7.7,��
2015/02/19,14:20,1.873,3.330,3.658,3.312,-,1.063,1.785,2.057,�k,7.4,�L
2015/02/19,14:30,1.873,3.355,3.662,3.308,-,1.065,1.787,2.057,�k,6.5,��
2015/02/19,14:40,1.872,3.380,3.665,3.315,-,1.065,1.790,2.055,�k,7.4,�L
2015/02/19,14:50,1.875,3.383,3.665,3.315,-,1.067,1.792,2.052,�k,6.3,��
2015/02/19,15:00,1.872,3.380,3.667,3.308,3.383,1.067,1.792,2.057,�k,7.2,��
2015/02/19,15:10,1.872,3.387,3.668,3.315,3.412,1.068,1.792,2.057,�k,6.7,��
2015/02/19,15:20,1.873,3.387,3.668,3.315,3.415,1.070,1.790,2.058,�k,7.5,��
2015/02/19,15:30,1.875,3.387,3.668,3.318,3.420,1.070,1.792,2.053,�k,7.1,��
2015/02/19,15:40,1.877,3.383,3.672,3.315,3.420,1.073,1.793,2.060,�k,7.4,��
2015/02/19,15:50,1.873,3.385,3.673,3.315,3.423,1.077,1.795,2.060,�k,6.4,��
2015/02/19,16:00,1.873,3.390,3.672,3.318,3.425,1.080,1.792,2.058,�k,7.5,��
2015/02/19,16:10,1.875,3.393,3.673,3.315,3.428,1.082,1.793,2.060,�k,6.6,��
2015/02/19,16:20,1.877,3.388,3.673,3.318,3.430,1.080,1.795,2.058,�k,6.7,��
2015/02/19,16:30,1.877,3.388,3.675,3.318,3.420,1.082,1.792,2.058,�k,6.0,��
2015/02/19,16:40,1.877,3.390,3.673,3.317,3.412,1.083,1.792,2.057,�k,5.7,��
2015/02/19,16:50,1.873,3.388,3.675,3.320,3.427,1.080,1.792,2.057,�k,6.6,��
2015/02/19,17:00,1.875,3.388,3.672,3.318,3.432,1.077,1.790,2.057,�k,5.8,��
2015/02/19,17:10,1.875,3.387,3.673,3.322,3.428,1.080,1.792,2.058,�k,6.6,�L
2015/02/19,17:20,1.878,3.387,3.677,3.317,3.432,1.083,1.792,2.058,�k,6.0,�L
2015/02/19,17:30,1.875,3.392,3.678,3.320,3.433,1.085,1.792,2.057,�k,6.0,��
2015/02/19,17:40,1.875,3.390,3.675,3.318,3.435,1.082,1.792,2.058,�k,5.8,�L
2015/02/19,17:50,1.873,3.393,3.675,3.318,3.437,1.083,1.793,2.060,�k,5.6,�L
2015/02/19,18:00,1.875,3.387,3.677,3.318,3.435,1.083,1.793,2.058,�k,5.6,�L
2015/02/19,18:10,1.875,3.388,3.680,3.317,3.435,1.083,1.792,2.055,�k,6.0,�L
2015/02/19,18:20,1.878,3.390,3.678,3.320,3.438,1.083,1.792,2.058,�k,6.6,�L
2015/02/19,18:30,1.875,3.388,3.673,3.315,3.433,1.085,1.793,2.062,�k,4.9,�L
2015/02/19,18:40,1.873,3.385,3.672,3.313,3.437,1.085,1.793,2.060,�k�k��,5.8,�L
2015/02/19,18:50,1.875,3.383,3.668,3.317,3.428,1.083,1.792,2.057,�k,5.3,�L
2015/02/19,19:00,1.873,3.382,3.668,3.313,3.428,1.083,1.793,2.060,�k,4.9,�L
2015/02/19,19:10,1.873,3.382,3.665,3.313,3.428,1.082,1.792,2.057,�k,4.6,�L
2015/02/19,19:20,1.872,3.380,3.668,3.312,3.425,1.083,1.792,2.058,�k,5.2,�L
2015/02/19,19:30,1.873,3.382,3.660,3.312,3.432,1.085,1.790,2.055,�k,4.5,�L
2015/02/19,19:40,1.872,3.380,3.663,3.310,3.427,1.083,1.792,2.057,�k,5.6,�L
2015/02/19,19:50,1.873,3.377,3.660,3.308,3.427,1.085,1.793,2.058,�k,6.0,�L
2015/02/19,20:00,1.873,3.380,3.663,3.313,3.427,1.083,1.790,2.055,�k�k��,6.0,�L
2015/02/19,20:10,1.872,3.380,3.662,3.315,3.425,1.087,1.790,2.057,�k�k��,6.1,�L
2015/02/19,20:20,1.870,3.375,3.660,3.310,3.427,1.083,1.790,2.057,�k�k��,6.0,�L
2015/02/19,20:30,1.872,3.368,3.652,3.312,3.420,1.083,1.788,2.053,�k�k��,5.3,�L
2015/02/19,20:40,1.870,3.360,3.645,3.305,3.412,1.083,1.788,2.053,�k,4.9,�L
2015/02/19,20:50,1.870,3.357,3.640,3.302,3.400,1.085,1.785,2.053,�k,4.9,�L
2015/02/19,21:00,1.867,3.353,3.633,3.297,3.398,1.080,1.785,2.052,�k,5.0,�L
2015/02/19,21:10,1.867,3.350,3.630,3.297,3.393,1.082,1.782,2.052,�k,4.9,�L
2015/02/19,21:20,1.863,3.347,3.623,3.287,3.385,1.080,1.782,2.052,�k,6.0,�L
2015/02/19,21:30,1.865,3.342,3.623,3.290,3.385,1.080,1.780,2.050,�k�k��,5.3,�L
2015/02/19,21:40,1.868,3.337,3.618,3.283,3.383,1.082,1.780,2.048,�k,4.9,�L
2015/02/19,21:50,1.863,3.330,3.613,3.282,3.373,1.075,1.783,2.050,�k�k��,4.7,�L
2015/02/19,22:00,1.862,3.328,3.613,3.278,3.373,1.080,1.782,2.047,�k,5.3,�L
2015/02/19,22:10,1.863,3.328,3.613,3.278,3.372,1.078,1.782,2.050,�k,5.2,�L
2015/02/19,22:20,1.863,3.328,3.612,3.280,3.372,1.080,1.780,2.052,�k�k��,5.0,�L
2015/02/19,22:30,1.863,3.332,3.618,3.282,3.377,1.078,1.782,2.050,�k,4.4,�L
2015/02/19,22:40,1.862,3.333,3.615,3.283,3.378,1.080,1.778,2.048,�k�k��,5.0,��
2015/02/19,22:50,1.862,3.330,3.618,3.285,3.383,1.075,1.782,2.050,�k�k��,5.2,�L
2015/02/19,23:00,1.865,3.337,3.617,3.285,3.385,1.080,1.782,2.052,�k�k��,5.8,�L
2015/02/19,23:10,1.863,3.332,3.618,3.285,3.385,1.082,1.780,2.052,�k�k��,6.8,�L
2015/02/19,23:20,1.863,3.332,3.618,3.283,3.383,1.080,1.780,2.053,�k�k��,6.0,�L
2015/02/19,23:30,1.863,3.330,3.617,3.283,3.385,1.080,1.780,2.052,�k�k��,5.5,�L
2015/02/19,23:40,1.865,3.330,3.620,3.287,3.385,1.080,1.780,2.052,�k,3.9,�L
2015/02/19,23:50,1.862,3.330,3.622,3.285,3.387,1.078,1.783,2.050,�k,5.7,�L
